Weather Roundup
Issued by NWS Springfield, MO

Home | Current Version | Previous Version | Text Only | Print | Product List | Glossary On
Versions: 1 2 3 4 5 6 7 8 9 10 11 12 13 14 15 16 17 18 19 20 21 22 23 24 25 26 27 28 29 30 31 32 33 34 35 36 37 38 39 40 41 42 43 44 45 46 47 48 49 50
000
NZUS99 KSGF 281857
HRRSGF

HOURLY WEATHER
NATIONAL WEATHER SERVICE SPRINGFIELD MO
200 PM CDT THU JUL 28 2016

......SGF CWA......

CITY           SKY/WX    TMP DP  RH WIND       PRES   REMARKS
SPRINGFIELD    CLOUDY    89  68  49 S3        29.95F HX  93
JOPLIN         CLOUDY    88  76  67 NW6       29.96S HX  99
WEST PLAINS    SUNNY     90  70  51 VRB6      29.97F HX  95
ROLLA          MOSUNNY   86  70  58 N7        29.93F HX  90
BRANSON        PTSUNNY   90  72  55 SW3       29.98F HX  96

......SURROUNDING SGF CWA......

CITY           SKY/WX    TMP DP  RH WIND       PRES   REMARKS
CHANUTE        SUNNY     89  72  56 NW8       29.96S HX  96
PARSONS        MOSUNNY   91  74  57 NW8       29.96S HX 100
COFFEYVILLE    CLOUDY    91  72  53 S10       29.95S HX  98
EMPORIA        SUNNY     89  67  47 E5        29.98F HX  92
HARRISON AR    MOSUNNY   89  71  55 NW7       29.98F HX  95

......KANSAS AND MISSOURI......

CITY           SKY/WX    TMP DP  RH WIND       PRES   REMARKS
KANSAS CTY INT PTSUNNY   87  70  56 N8        29.96F HX  92
SEDALIA        PTSUNNY   88  77  69 N9        29.94F HX 100
ST JOSEPH      MOSUNNY   86  70  58 N8G18     29.96F HX  90
ST LOUIS       MOSUNNY   90  71  53 NW10G20   29.90F HX  96
WICHITA        PTSUNNY   91  72  53 NE14G21   29.96F HX  98
TOPEKA         SUNNY     91  69  48 NE10      29.95F HX  96
OLATHE         SUNNY     90  63  40 N8G18     29.97S HX  91

......TENNESSEE......

CITY           SKY/WX    TMP DP  RH WIND       PRES   REMARKS
MEMPHIS        NOT AVBL
NASHVILLE      CLOUDY    80  72  76 NW10      29.92S

......ARKANSAS.......

CITY           SKY/WX    TMP DP  RH WIND       PRES   REMARKS
FAYETTEVILLE   PTSUNNY   87  75  67 CALM      29.98F HX  96
FT SMITH       MOSUNNY   92  69  47 CALM      29.93F HX  97
LITTLE ROCK    PTSUNNY   92  77  61 W10       29.94F HX 105

......OKLAHOMA.......

CITY           SKY/WX    TMP DP  RH WIND       PRES   REMARKS
TULSA          PTSUNNY   94  74  52 CALM      29.92F HX 104
PONCA CITY     MOSUNNY   94  67  41 SE7       29.94F HX  97
MCALESTER      MOSUNNY   91  73  55 SE5       29.96F HX  99
OKLAHOMA CITY  PTSUNNY   92  71  50 CALM      29.97F HX  98

......IOWA............

CITY           SKY/WX    TMP DP  RH WIND       PRES   REMARKS
DES MOINES     NOT AVBL
QUAD CITIES    MOSUNNY   85  68  56 W14       29.86F

......ILLINOIS........

CITY           SKY/WX    TMP DP  RH WIND       PRES   REMARKS
QUINCY         NOT AVBL
CHICAGO        LGT RAIN  74  70  87 N7        29.89S FOG




USA.gov is the U.S. government's official web portal to all federal, state and local government web resources and services.